sat.trackr.live / text

‹ back to catalog

STARLINK-1134

NORAD 45048 · 2020-006E

PAYLOAD ACTIVE UNKNOWN

§ Identity

Operator
Country
US
Launch date
2020-01-29
Launch site
AFETR
Launch vehicle
Mass (kg)
RCS (m²)

Purposes: comms

External: N2YO · Heavens-Above · Gunter

§ Orbital elements

Epoch: 2026-05-24T23:04:59.655648Z

Period
92.62 min
Inclination
53.0267°
Eccentricity
0.0007267
Mean motion
15.54707552 rev/d
Perigee alt
398.1 km
Apogee alt
407.9 km
Semi-major
6,781.1 km
B*
1.4904e-3
RAAN
232.7830°
Arg perigee
20.5613°
Mean anomaly
339.5688°
Rev number
34,896

§ Raw data

STARLINK-11341 45048U 20006E   26144.96180157  .00101552  00000+0  14904-2 0  99962 45048  53.0267 232.7830 0007267  20.5613 339.5688 15.54707552348963

JSON: /api/v1/satellites/45048 · /tle

For live sub-satellite position, see the globe view (requires WebGL).

§ Visibility from observer

Set your observer location to see the next 7 days of passes ≥ 10°. The values pass through the URL so the page stays shareable.

No JS? Fill the form by hand. The geolocation button needs JavaScript.